Location: Unspecified
(0.0000°N, 0.0000°E)
Time: 07:00:32
(UTC+02:00)

Ariane H10 - Visible Passes

Search period start: 30 July 2014 00:00
Search period end: 09 August 2014 00:00
Orbit: 419 x 35115 km, 4.5° (Epoch: 28 July)

Date Brightness Start Highest point End Pass type
(mag) Time Alt. Az. Time Alt. Az. Time Alt. Az.
30 Jul 10.5 22:35:47 10° W 23:43:49 18° W 01:41:47 10° W visible
31 Jul 2.5 07:23:06 10° W 07:33:13 84° S 07:36:13 10° E visible
31 Jul 5.5 18:27:26 10° W 04:07:49 48° ESE 04:12:33 10° E visible
01 Aug 6.7 14:58:00 10° W 22:52:58 83° SE 00:10:08 68° ESE visible
02 Aug 8.7 16:19:36 10° E 19:25:42 26° E 20:51:00 10° E visible
03 Aug 4.8 19:08:59 10° W 04:45:17 66° ESE 04:50:45 10° E visible
04 Aug 7.2 15:36:33 10° W 21:57:36 87° S 00:47:18 81° SE visible
05 Aug 4.8 12:12:09 10° W 12:16:46 68° N 12:50:15 10° E visible
06 Aug 4.2 19:52:21 10° W 05:23:09 80° S 05:28:50 10° E visible
07 Aug 7.6 16:15:27 10° W 20:56:41 88° S 01:24:32 78° SW visible
08 Aug 5.3 12:50:10 10° W 12:56:18 73° N 22:09:35 30° E visible
